Location: Schommer Observatory
(40.5200°N, 74.4500°W)
Time: 17:42:08
(UTC-04:00)

Vanguard 2 - All Passes

Search period start: 18 September 2018 00:00
Search period end: 28 September 2018 00:00
Orbit: 554 x 2938 km, 32.9° (Epoch: 18 September)

Date Brightness Start Highest point End Pass type
(mag) Time Alt. Az. Time Alt. Az. Time Alt. Az.
18 Sep - 00:39:23 10° WSW 00:56:01 61° SSE 01:12:17 10° E visible
18 Sep - 02:50:40 10° W 03:08:23 65° S 03:22:28 10° ESE visible
18 Sep - 05:03:50 10° W 05:19:26 46° SSW 05:30:27 10° SE visible
18 Sep - 07:19:59 10° W 07:27:50 17° SW 07:34:06 10° SSW daylight
18 Sep - 20:44:29 10° S 20:52:54 18° SE 21:02:42 10° E visible
18 Sep - 22:48:20 10° SW 23:02:22 45° SSE 23:18:36 10° E visible
19 Sep - 00:57:16 10° WSW 01:14:08 64° S 01:30:28 10° E visible
19 Sep - 03:08:54 10° W 03:26:29 62° SSW 03:40:22 10° ESE visible
19 Sep - 05:22:22 10° W 05:37:06 39° SW 05:47:44 10° SSE visible
19 Sep - 07:41:25 10° WSW 07:45:02 11° SW 07:48:18 10° SW daylight
19 Sep - 21:00:09 10° S 21:10:15 25° SE 21:22:34 10° E visible
19 Sep - 23:05:43 10° SW 23:20:12 51° SSE 23:36:59 10° E visible
20 Sep - 01:15:17 10° WSW 01:32:18 66° S 01:48:34 10° E visible
20 Sep - 03:27:11 10° W 03:44:31 58° SSW 03:58:10 10° SE visible
20 Sep - 05:41:06 10° W 05:54:38 32° SW 06:04:43 10° SSE visible
20 Sep - 21:16:35 10° SSW 21:27:41 32° SE 21:41:42 10° E visible
20 Sep - 23:23:19 10° SW 23:38:08 57° SSE 23:55:18 10° E visible
21 Sep - 01:33:22 10° W 01:50:29 67° S 02:06:39 10° ESE visible
21 Sep - 03:45:30 10° W 04:02:26 52° SSW 04:15:48 10° SE visible
21 Sep - 06:00:10 10° W 06:12:02 25° SW 06:21:16 10° S visible
21 Sep - 19:32:55 10° SE 19:36:53 12° SE 19:41:17 10° ESE visible
21 Sep - 21:33:28 10° SSW 21:45:13 39° SE 22:00:28 10° E visible
21 Sep - 23:41:05 10° WSW 23:56:10 62° SSE 00:13:33 10° E visible
22 Sep - 01:51:31 10° W 02:08:39 65° S 02:24:40 10° ESE visible
22 Sep - 04:03:54 10° W 04:20:15 46° SSW 04:33:15 10° SE visible
22 Sep - 06:19:53 10° W 06:29:20 19° SW 06:37:08 10° S visible
22 Sep - 19:47:01 10° SSE 19:54:06 18° SE 20:02:48 10° E visible
22 Sep - 21:50:41 10° SW 22:02:53 45° SSE 22:19:01 10° E visible
22 Sep - 23:58:58 10° WSW 00:14:17 65° S 00:31:45 10° E visible
23 Sep - 02:09:42 10° W 02:26:46 62° SSW 02:42:33 10° ESE visible
23 Sep - 04:22:26 10° W 04:37:57 39° SW 04:50:26 10° SSE visible
23 Sep - 06:41:11 10° WSW 06:46:34 13° SW 06:51:26 10° SSW daylight
23 Sep - 20:02:53 10° S 20:11:23 24° SE 20:22:33 10° E visible
23 Sep - 22:08:08 10° SW 22:20:40 52° SSE 22:37:26 10° E visible
24 Sep - 00:16:58 10° WSW 00:32:26 67° S 00:49:56 10° ESE visible
24 Sep - 02:27:55 10° W 02:44:48 57° SSW 03:00:19 10° SE visible
24 Sep - 04:41:11 10° W 04:55:30 32° SW 05:07:18 10° SSE visible
24 Sep - 20:19:28 10° SSW 20:28:46 31° SE 20:41:38 10° E visible
24 Sep - 22:25:47 10° SW 22:38:35 58° SSE 22:55:46 10° E visible
25 Sep - 00:35:01 10° W 00:50:36 66° S 01:08:02 10° ESE visible
25 Sep - 02:46:13 10° W 03:02:46 51° SSW 03:17:55 10° SE visible
25 Sep - 05:00:20 10° W 05:12:58 25° SW 05:23:41 10° S visible
25 Sep - 18:36:55 10° SE 18:38:37 10° SE 18:40:26 10° ESE daylight
25 Sep - 20:36:27 10° SSW 20:46:17 38° SE 21:00:22 10° E visible
25 Sep - 22:43:33 10° WSW 22:56:36 62° SSE 23:14:03 10° E visible
26 Sep - 00:53:07 10° W 01:08:46 64° S 01:26:02 10° ESE visible
26 Sep - 03:04:36 10° W 03:20:36 45° SSW 03:35:17 10° SE visible
26 Sep - 05:20:10 10° W 05:30:21 19° SW 05:39:19 10° S visible
26 Sep - 18:50:21 10° SSE 18:55:49 16° SE 19:02:40 10° E daylight
26 Sep - 20:53:44 10° SW 21:03:56 45° SSE 21:18:54 10° E visible
26 Sep - 23:01:27 10° WSW 23:14:41 65° S 23:32:18 10° E visible
27 Sep - 01:11:16 10° W 01:26:53 60° SSW 01:43:55 10° ESE visible
27 Sep - 03:23:08 10° W 03:38:21 38° SW 03:52:21 10° SSE visible
27 Sep - 05:41:43 10° WSW 05:47:41 13° SW 05:53:15 10° SSW visible
27 Sep - 19:06:16 10° S 19:13:06 22° SE 19:22:23 10° E visible
27 Sep - 21:11:14 10° SW 21:21:42 51° SSE 21:37:19 10° E visible
27 Sep - 23:19:25 10° WSW 23:32:49 65° S 23:50:29 10° ESE visible
